Weather in Ust-Kut

Russia / Irkutsk Oblast     56°47′34″N   105°46′32″E
temp.,
°C
wind,
m/s
gust,
m/s
humid.,
%
clouds,
%
prec.,
mm/h
press.,
hPa
HPBL,
m
23 january, sun
sun2323:00−25e11100100 0.0 10399
02:00−27e11100100 0.0 10399
05:00−27e11100100 0.0 10399
08:00−27ese00100100 0.1 10399
11:00−22ene00100100 0.0 103756
14:00−16ne119292 0.0 1035184
17:00−20nnw00100100 0.0 10359
20:00−24s0010098 0.0 10379
24 january, mon
mon2423:00−26s1110099 0.0 10389
02:00−27s11100100 0.1 10389
05:00−27sse1110099 0.0 10379
08:00−27sse1110098 0.1 10379
11:00−22ssw019899 0.0 103669
14:00−17wsw0191100 0.1 1034230
17:00−20se0010088 0.0 10359
20:00−22s11100100 0.1 10369
25 january, tue
tue2523:00−19s119994 0.1 103520
02:00−18s1199100 0.3 103529
05:00−19s119987 0.1 103513
08:00−19s119980 0.1 103521
11:00−17ssw119495 0.1 1035122
14:00−14ssw1286100 0.1 1034485
17:00−16s119896 0.1 10349
20:00−18s119996 0.1 103510
26 january, wed
wed2623:00−19s119984 0.1 103610
02:00−20s1110085 0.2 103710
05:00−23sse1110075 0.0 10389
08:00−23s1110082 0.1 103911
11:00−19ssw119778 0.1 103979
14:00−15sw0188100 0.1 1038322
17:00−20ene0010047 0.0 10409
20:00−26s1110092 0.0 10439
27 january, thu
thu2723:00−28s1110098 0.0 10459
02:00−30s1110097 0.0 10469
05:00−30sse1110098 0.0 10469
08:00−31sse1110096 0.0 10469
11:00−24sse0010095 0.0 104554
14:00−17nne008829 0.0 1042189
17:00−21ene009963 0.0 10439
20:00−25sse00100100 0.0 10449